Vorticity
5 4 4 4 4 4 4 6 10 10 10 9 8 8 2 2 4 6 5 5 7 11 -0 5 8 -11 -10 15 17 31 13 3 5 8 4 7 -1 8 12 11 4 15 19 -6 11
6 5 5 4 4 4 4 3 5 11 10 9 10 11 4 1 2 8 8 8 4 7 -0 8 12 -9 -23 -31 15 -35 -5 -8 18 14 7 2 7 8 7 -3 15 9 8 26 6
6 6 7 6 5 5 4 4 3 5 13 10 9 8 7 2 4 -2 10 7 5 4 4 -8 -2 6 -6 54 -14 12 23 4 -2 12 14 1 12 8 9 6 8 8 8 -16 15
8 7 7 7 7 7 6 5 4 3 6 12 10 10 11 3 5 7 7 6 3 3 4 1 11 13 -8 -14 60 -5 15 4 11 -1 16 12 9 5 11 16 4 11 9 6 2
9 9 8 8 8 7 7 7 6 4 4 11 10 11 11 4 -30 24 7 12 4 3 5 2 0 -0 -1 9 12 18 5 6 7 8 1 16 7 -1 5 6 11 4 8 9 12
11 12 12 10 10 9 8 7 8 6 4 5 14 10 11 5 3 16 5 13 8 3 5 6 -8 12 15 17 23 3 8 6 7 1 13 -1 7 7 14 5 1 8 5 3 4
8 9 9 10 11 11 12 10 8 8 6 4 10 11 10 -15 15 4 4 12 8 3 5 5 2 14 1 11 4 9 5 4 16 4 15 6 11 -2 9 7 3 9 3 4 -6
7 7 7 8 9 10 11 12 12 8 9 5 5 16 11 -9 8 8 6 5 8 -2 -1 -2 11 0 -4 9 23 17 6 -15 -1 0 16 6 1 -2 8 6 -1 9 9 -1 17
8 7 8 7 8 10 11 12 15 11 10 8 5 11 10 14 1 3 7 3 1 6 3 -1 8 3 47 9 -2 -0 31 1 64 -18 -3 -9 28 12 3 0 4 8 2 -0 -2
9 9 8 8 7 10 10 13 15 17 10 8 6 5 -1 16 28 -1 10 1 6 6 3 4 9 12 -11 -5 2 5 1 6 22 27 4 16 1 25 1 -2 4 -1 3 9 13
10 10 10 8 8 10 11 16 20 20 13 5 17 13 11 32 30 11 9 4 4 5 3 5 6 13 8 31 21 3 -1 27 17 16 27 -9 19 -9 35 -5 4 -2 8 7 12
10 10 11 9 9 10 11 12 6 -3 17 14 -5 34 10 18 15 6 10 3 5 3 6 4 -12 16 -4 -17 -1 2 11 4 9 22 4 12 -2 12 5 9 24 22 -18 2 11
11 10 10 12 10 10 12 -2 4 11 0 17 10 12 -7 14 4 8 9 4 4 5 1 8 9 39 22 34 16 14 -9 4 -1 17 -1 10 11 5 -3 19 16 5 11 9 8
11 11 10 12 10 12 13 15 17 20 2 18 16 5 5 2 14 15 6 8 5 3 7 1 12 -2 -11 -2 -4 -1 2 -2 5 24 4 20 -5 58 18 25 3 38 -2 -15 26
10 13 12 12 10 12 10 14 10 8 6 62 6 -0 3 1 -1 15 9 6 1 -3 12 7 4 -11 -1 -12 39 55 -3 -4 18 11 6 26 18 -13 43 22 1 6 18 3 15
11 13 13 13 11 -1 22 12 12 0 21 5 12 19 8 12 -5 25 15 9 4 3 -4 10 4 7 9 14 20 -6 14 39 -5 -11 24 14 15 36 -40 79 11 6 16 -10 63
11 12 13 13 2 10 15 1 6 -3 22 17 4 24 7 9 10 16 16 4 8 8 6 2 5 0 13 7 -11 3 4 16 15 8 1 10 23 -13 20 -8 22 -2 7 2 25
12 12 14 12 7 15 8 2 2 38 -3 8 23 23 13 3 17 7 8 10 11 -1 10 9 13 8 -23 2 10 -5 14 -4 13 6 4 35 -13 2 -17 78 30 11 6 29 -0
13 13 14 15 13 12 -9 6 -4 1 25 15 2 16 12 14 3 -4 6 10 12 9 -3 14 3 15 16 3 15 5 14 -4 -6 7 30 -8 27 -8 27 38 12 21 11 7 7
12 15 2 17 15 13 -5 -0 -8 -7 16 15 9 14 12 16 12 19 -1 23 12 14 4 -1 -5 2 49 7 1 13 22 14 8 7 15 19 -19 13 -9 -6 11 17 1 14 6
15 8 13 8 18 4 3 7 10 2 10 -3 16 4 8 20 22 2 -0 5 19 18 3 9 1 9 29 -4 -1 5 -12 -19 -0 1 -11 22 12 8 9 12 16 9 10 10 18
9 -3 17 13 17 12 5 10 -2 19 10 24 9 15 10 26 21 8 11 -1 17 19 21 6 8 4 -1 7 8 13 3 -2 10 23 18 -5 39 -21 -2 48 26 16 16 9 12
10 -2 14 25 4 9 14 13 5 7 -2 7 10 16 -4 10 11 39 17 3 9 -1 16 25 6 7 17 -0 -3 4 7 14 14 -4 -2 8 2 -5 25 67 11 16 7 28 16
13 13 10 22 2 -2 7 20 8 9 9 2 22 -2 25 2 9 14 21 15 8 4 8 -3 33 11 -4 -1 17 -1 8 6 7 7 23 -2 -2 80 23 12 10 24 10 1 -5
17 -0 28 13 23 16 0 -3 3 17 2 9 10 5 5 8 12 6 -8 17 22 18 16 8 -0 4 13 10 5 -8 11 1 14 13 -26 -18 10 -3 -28 32 13 7 10 11 16
-1 9 13 -20 -5 12 15 22 7 7 15 -7 9 8 16 9 1 4 33 -15 -2 20 14 12 16 14 7 8 4 9 0 21 1 21 19 9 -27 29 -4 -75 12 7 5 7 14
7 22 6 12 10 15 10 7 15 14 9 30 -8 9 16 20 5 -1 2 -0 27 7 9 11 10 6 12 11 8 16 8 7 -8 23 13 -8 12 0 29 15 8 8 9 10 12
Height
3161 3161 3161 3161 3161 3161 3161 3161 3162 3162 3164 3165 3166 3168 3170 3172 3172 3173 3173 3173 3172 3172 3173 3174 3174 3168 3170 3179 3169 3163 3169 3177 3179 3180 3183 3184 3184 3185 3187 3189 3185 3183 3181 3185 3185
3160 3160 3159 3160 3160 3160 3161 3161 3161 3162 3163 3164 3165 3167 3170 3171 3172 3172 3173 3172 3172 3172 3173 3173 3169 3170 3167 3170 3171 3173 3174 3178 3179 3180 3182 3184 3185 3186 3188 3188 3186 3186 3185 3184 3186
3157 3157 3158 3158 3158 3159 3160 3160 3161 3161 3162 3163 3164 3166 3169 3171 3173 3172 3173 3173 3173 3173 3173 3172 3170 3176 3171 3170 3176 3174 3179 3181 3182 3183 3183 3185 3186 3187 3188 3189 3188 3188 3189 3187 3189
3155 3155 3155 3155 3156 3157 3157 3158 3159 3160 3161 3162 3163 3165 3168 3171 3175 3172 3172 3173 3173 3174 3174 3175 3172 3174 3167 3176 3178 3181 3181 3182 3183 3185 3185 3187 3188 3188 3189 3190 3189 3190 3191 3192 3190
3152 3152 3152 3153 3153 3154 3155 3156 3157 3158 3159 3161 3162 3164 3166 3169 3170 3170 3172 3173 3173 3174 3174 3177 3175 3178 3177 3178 3181 3181 3182 3184 3185 3186 3187 3189 3189 3189 3192 3192 3193 3194 3194 3194 3193
3150 3150 3150 3150 3150 3150 3152 3153 3154 3156 3158 3159 3160 3162 3165 3168 3169 3170 3171 3172 3173 3174 3174 3178 3177 3179 3179 3179 3179 3179 3182 3184 3186 3188 3189 3190 3191 3191 3193 3194 3194 3196 3197 3196 3197
3148 3147 3147 3147 3147 3148 3148 3150 3151 3153 3155 3157 3159 3160 3162 3167 3168 3169 3170 3172 3173 3173 3175 3177 3179 3182 3182 3181 3180 3180 3183 3184 3187 3190 3190 3191 3193 3193 3193 3195 3196 3197 3198 3196 3196
3145 3145 3145 3144 3144 3145 3145 3146 3148 3150 3152 3155 3157 3159 3159 3165 3165 3166 3169 3171 3172 3173 3175 3176 3178 3178 3178 3183 3183 3180 3182 3184 3185 3186 3190 3190 3190 3191 3194 3195 3195 3194 3195 3196 3194
3143 3142 3142 3142 3142 3142 3143 3143 3145 3147 3150 3152 3155 3157 3159 3159 3161 3167 3168 3170 3172 3175 3176 3180 3178 3179 3178 3179 3181 3180 3184 3186 3185 3183 3186 3188 3187 3189 3188 3189 3191 3192 3192 3194 3196
3140 3139 3139 3139 3139 3140 3140 3141 3142 3144 3147 3149 3151 3156 3156 3156 3160 3163 3168 3170 3174 3177 3177 3177 3178 3179 3178 3177 3180 3183 3180 3182 3180 3184 3182 3183 3183 3183 3184 3184 3185 3184 3191 3189 3191
3136 3136 3136 3136 3137 3138 3139 3140 3144 3146 3143 3146 3150 3152 3155 3154 3158 3161 3167 3171 3175 3176 3177 3177 3178 3174 3175 3175 3179 3178 3179 3181 3179 3179 3181 3178 3176 3176 3180 3180 3181 3183 3181 3183 3187
3132 3133 3133 3134 3135 3135 3136 3137 3140 3140 3140 3141 3145 3149 3154 3156 3157 3161 3166 3170 3172 3173 3175 3176 3173 3171 3169 3175 3176 3175 3177 3178 3178 3176 3178 3177 3177 3172 3174 3176 3177 3176 3173 3182 3186
3129 3129 3130 3131 3132 3133 3134 3134 3135 3138 3139 3141 3141 3145 3150 3153 3155 3158 3163 3166 3169 3171 3170 3170 3170 3169 3168 3168 3172 3171 3174 3175 3178 3175 3174 3175 3173 3169 3168 3174 3175 3175 3175 3180 3183
3126 3126 3127 3128 3132 3131 3132 3134 3136 3138 3140 3137 3135 3141 3146 3149 3152 3156 3160 3165 3166 3167 3168 3167 3164 3164 3169 3167 3169 3170 3171 3175 3175 3174 3172 3165 3166 3162 3157 3160 3167 3170 3173 3175 3178
3124 3124 3124 3126 3129 3130 3135 3133 3135 3140 3138 3126 3133 3138 3141 3145 3150 3151 3157 3161 3162 3163 3166 3163 3162 3163 3165 3164 3167 3170 3171 3172 3172 3171 3169 3167 3169 3162 3161 3160 3161 3163 3168 3172 3176
3121 3121 3122 3124 3126 3128 3129 3132 3137 3143 3132 3130 3131 3133 3138 3141 3144 3150 3153 3158 3161 3161 3161 3159 3160 3160 3160 3161 3165 3167 3169 3166 3171 3170 3167 3168 3173 3165 3161 3148 3156 3164 3166 3168 3168
3117 3117 3119 3121 3123 3126 3129 3133 3140 3133 3127 3127 3128 3132 3135 3138 3142 3145 3148 3151 3153 3158 3156 3156 3154 3158 3158 3160 3161 3163 3163 3164 3166 3163 3169 3167 3170 3155 3152 3157 3156 3161 3163 3165 3167
3114 3114 3116 3118 3121 3124 3127 3134 3133 3123 3123 3123 3126 3129 3131 3135 3138 3141 3144 3147 3150 3153 3153 3152 3150 3151 3153 3157 3160 3162 3160 3160 3164 3162 3164 3167 3162 3151 3149 3150 3158 3161 3163 3164 3168
3111 3112 3114 3116 3118 3121 3126 3129 3124 3121 3121 3121 3124 3126 3129 3132 3135 3137 3139 3142 3144 3148 3150 3147 3145 3146 3148 3153 3158 3159 3163 3159 3161 3157 3155 3159 3160 3149 3146 3151 3155 3157 3161 3163 3169
3110 3111 3113 3114 3116 3120 3123 3121 3121 3123 3121 3122 3122 3123 3123 3127 3130 3132 3134 3137 3140 3143 3147 3145 3144 3144 3143 3150 3153 3153 3153 3157 3157 3152 3148 3157 3163 3160 3150 3149 3155 3157 3160 3164 3166
3109 3112 3114 3114 3115 3117 3117 3119 3120 3122 3122 3124 3123 3120 3121 3120 3124 3127 3129 3133 3135 3138 3142 3144 3143 3141 3142 3144 3146 3149 3149 3150 3146 3147 3147 3152 3162 3160 3154 3154 3155 3157 3158 3161 3163
3108 3112 3110 3113 3115 3114 3115 3117 3119 3119 3118 3119 3121 3119 3117 3117 3118 3121 3124 3127 3129 3132 3134 3139 3140 3137 3136 3138 3140 3143 3144 3146 3145 3144 3146 3150 3157 3154 3152 3150 3153 3156 3156 3158 3162
3106 3112 3108 3110 3111 3112 3114 3114 3116 3116 3117 3118 3119 3119 3117 3116 3116 3116 3120 3124 3123 3127 3131 3134 3135 3135 3134 3135 3136 3138 3143 3143 3141 3141 3145 3149 3155 3153 3146 3141 3149 3153 3156 3158 3161
3105 3109 3109 3105 3107 3109 3110 3111 3111 3113 3113 3115 3115 3116 3116 3117 3115 3115 3116 3117 3121 3126 3126 3129 3129 3131 3132 3133 3133 3134 3136 3139 3140 3136 3139 3144 3144 3149 3144 3141 3147 3151 3154 3158 3163
3102 3106 3104 3105 3105 3105 3107 3108 3107 3109 3108 3111 3112 3113 3115 3116 3115 3115 3115 3115 3118 3120 3124 3129 3129 3130 3130 3130 3129 3129 3130 3133 3135 3135 3136 3136 3144 3151 3144 3137 3139 3147 3152 3156 3161
3097 3096 3097 3096 3099 3101 3102 3102 3104 3106 3107 3107 3108 3110 3112 3113 3114 3112 3113 3113 3115 3119 3120 3126 3128 3130 3129 3128 3127 3126 3126 3127 3128 3131 3133 3138 3139 3142 3149 3116 3146 3144 3149 3155 3159
3090 3091 3092 3093 3096 3098 3099 3100 3101 3102 3103 3102 3103 3103 3107 3105 3101 3104 3106 3108 3111 3114 3118 3122 3125 3126 3125 3126 3126 3124 3124 3126 3126 3127 3129 3129 3123 3136 3129 3141 3141 3142 3146 3152 3156